Location: Imsbacherhof
(49.1309°N, 7.5456°E)
Time: 23:35:25
(UTC+00:00)

Daily predictions for brighter satellites

Satellite Brightness Start Highest point End
(mag) Time Altitude Azimuth Time Altitude Azimuth Time Altitude Azimuth
Tsikada Rocket 4.1 17:56:02 10° N 18:02:12 84° W 18:08:22 10° S
CZ-2C R/B 3.2 17:59:14 10° SSE 18:04:25 67° ENE 18:09:56 10° N
SJ 16-02 1.4 18:00:08 10° SSW 18:04:31 86° WNW 18:08:57 10° NNE
Cosmos 990 Rocket 4.0 17:59:49 10° S 18:04:52 60° ESE 18:09:56 10° NNE
Cosmos 2227 4.4 17:59:51 10° S 18:05:25 55° ESE 18:11:00 10° NE
ISS -1.6 18:04:40 10° SSE 18:06:06 12° SE 18:07:30 10° ESE
Abrixas rocket 2.3 18:05:30 10° WSW 18:08:15 46° SSE 18:11:00 10° E
Cosmos 1943 3.2 18:03:54 10° NNW 18:09:35 80° ENE 18:15:15 10° SSE
Okean 2 Rocket 4.3 18:06:36 10° SE 18:09:58 21° E 18:13:21 10° NE
SJ-11-01 4.3 18:06:06 10° SSE 18:10:45 62° ENE 18:15:25 10° N
NOSS 8 (F) 4.1 18:08:03 10° SSW 18:11:15 66° SE 18:14:14 10° NE
Helios 1A Rocket 4.5 18:08:28 10° S 18:12:21 40° W 18:16:17 10° NNW
Cosmos 1939 Rocket 4.4 18:08:45 10° S 18:12:40 43° W 18:16:39 10° NNW
Okean-O 3.4 18:08:38 10° S 18:13:00 58° W 18:17:23 10° NNW
Lacrosse 5 rocket 2.1 18:08:53 10° WSW 18:13:03 56° NNW 18:17:26 10° NE
Ariane Rocket 3.7 18:11:47 10° SE 18:16:19 34° ENE 18:20:51 10° N
Cosmos 1437 2.4 18:14:43 10° N 18:17:44 71° ENE 18:20:42 10° SSE
NOSS 3-2 (A) 4.4 18:11:36 10° NW 18:18:36 51° NE 18:26:32 10° ESE
NOSS 2-2 (C) 4.2 18:17:42 10° S 18:20:32 23° ESE 18:23:35 10° ENE
Meteor 1-21 4.2 18:14:55 10° N 18:20:34 78° ENE 18:26:10 10° SSE
Cosmos 2227 Rocket 4.3 18:17:10 10° WSW 18:21:59 28° NW 18:26:50 10° NNE
USA 116 3.3 18:19:02 10° NNE 18:22:24 72° ESE 18:26:07 10° S
GP-B 4.0 18:19:46 10° N 18:24:08 55° W 18:28:28 10° SSW
CSL-04 Debris 4.2 18:18:46 10° SSE 18:24:10 86° WSW 18:29:36 10° NNW
YAOGAN 1 3.4 18:24:22 10° S 18:28:36 54° W 18:32:52 10° NNW
Cosmos 1603 4.1 18:23:21 10° NNW 18:28:59 67° WSW 18:34:33 10° SSE
HJ-1C 3.4 18:27:43 10° SSE 18:31:00 84° WSW 18:34:19 10° NNW
Cosmos 1898 Rocket 3.5 18:26:46 10° SSW 18:31:57 89° ESE 18:37:11 10° NNE
Cosmos 1867 3.6 18:27:37 10° NW 18:33:07 76° NE 18:38:34 10° SE
CSL-04 Rocket 3.9 18:28:30 10° S 18:33:54 77° WSW 18:39:26 10° NNW
Okean 2 4.1 18:29:53 10° NNW 18:34:01 60° W 18:38:06 10° S
Cosmos 1536 Rocket 4.3 18:33:43 10° N 18:37:45 33° ENE 18:41:16 13° SE
USA 234 4.1 18:36:30 10° ENE 18:41:59 28° SE 18:47:27 10° S
Cosmos 1626 4.3 18:42:28 10° NE 18:43:16 11° ENE 18:43:18 11° ENE
Cosmos 858 Rocket 4.4 18:39:56 10° SSW 18:45:10 85° ESE 18:50:25 10° NNE
CREW DRAGON DEMO-1 DEB 3.4 18:43:02 10° WNW 18:45:59 49° N 18:47:59 18° ENE
Cosmos 1782 Rocket 3.9 18:44:56 10° SSW 18:49:19 69° WNW 18:53:47 10° N
Cosmos 1975 3.8 18:46:27 10° SSW 18:50:25 51° WNW 18:54:26 10° N
CZ-4 R/B 3.7 18:47:17 10° SSW 18:50:55 27° W 18:54:33 10° NW
Cosmos 2151 Rocket 4.1 18:46:54 10° SSE 18:51:00 37° E 18:55:08 10° NNE
Cosmos 372 Rocket 4.1 18:46:05 10° S 18:51:08 49° ESE 18:56:10 10° NNE
USA 186 1.6 18:48:48 12° SSE 18:51:32 65° ENE 18:54:46 10° N
Cosmos 1025 Rocket 3.1 18:47:32 10° N 18:51:52 57° ENE 18:56:09 10° SSE
NOSS 3-2 (C) 4.3 18:45:41 10° NW 18:52:44 53° NE 18:58:45 18° ESE
Cosmos 1072 Rocket 4.4 18:50:35 10° S 18:56:46 72° E 19:03:06 10° NNE
Nadezhda 4 Rocket 4.0 18:52:32 10° N 18:58:36 58° ENE 19:04:36 10° SSE
Cosmos 2082 Rocket 4.3 18:58:54 10° N 19:01:39 14° NNE 19:04:24 10° ENE
Cosmos 1937 Rocket 3.8 18:56:25 10° SSW 19:01:40 72° WNW 19:06:54 10° NNE
OBJECT-B 1.5 19:01:23 30° E 19:02:01 33° ENE 19:05:00 10° N
Cosmos 2034 Rocket 4.1 18:56:52 10° SSE 19:03:02 54° E 19:09:12 10° NNE
MOS 1 Rocket 3.3 18:58:55 10° N 19:03:27 77° WNW 19:07:46 10° SSW
Cosmos 1125 Rocket 4.3 19:00:09 10° SSE 19:04:39 29° E 19:09:12 10° NE
Exosat Rocket 4.3 19:01:10 10° SSE 19:05:55 29° ESE 19:10:12 10° NE
FREGAT/IRIS 2.1 19:05:32 45° SE 19:06:08 68° ENE 19:08:44 10° N
Cosmos 1674 3.2 19:05:00 10° N 19:08:39 40° ENE 19:09:42 32° ESE
In-Cosmos 22 4.1 19:10:24 10° NNW 19:15:43 85° W 19:21:04 10° S
Cosmos 468 4.5 19:11:39 10° NNW 19:17:01 76° ENE 19:20:21 24° SSE
NOSS 2-2 (E) 3.1 19:14:06 10° SW 19:17:37 82° NW 19:21:44 10° NE
Resurs 01 Rocket 2.2 19:19:16 33° ESE 19:20:23 39° ENE 19:24:32 10° N
H-2A R/B 3.5 19:16:26 10° SSW 19:20:59 36° W 19:25:39 10° NNW
Cosmos 1707 3.7 19:17:27 10° NNW 19:21:10 47° W 19:24:50 10° SSW
ARGOS 4.1 19:16:55 10° S 19:22:05 48° W 19:27:17 10° NNW
ATLAS 2AS CENTAUR R/B 4.1 19:16:39 10° SSE 19:24:48 21° E 19:28:35 10° ENE
CZ-2C R/B 2.6 19:18:23 10° NNE 19:23:56 78° ESE 19:29:31 10° S
SJ-6B 2.9 19:21:47 19° S 19:24:19 71° WSW 19:28:05 10° NNW
Lacrosse 4 Rocket 3.8 19:23:49 10° NNE 19:24:45 11° NNE 19:25:40 10° NE
NOSS 2-2 (D) 3.1 19:22:34 10° SW 19:26:04 86° NW 19:30:05 10° NE
KORONAS-FOTON 3.8 19:22:25 10° N 19:26:20 61° ENE 19:27:14 46° SE
MOS 1 4.4 19:23:08 10° S 19:28:49 76° WSW 19:34:33 10° NNW
Cosmos 1048 Rocket 4.0 19:25:52 10° NNW 19:31:13 88° WSW 19:34:10 27° SSE
Cosmos 1766 4.5 19:33:40 27° NE 19:33:40 27° NE 19:35:57 10° NNE
ATLAS CENTAUR R/B 4.3 19:32:29 10° NNW 19:32:54 10° NNW 19:33:19 10° NNW
CENTAUR R/B 3.2 19:25:49 10° NW 19:33:44 73° NE 19:38:32 30° ESE
Cosmos 1844 3.9 19:29:28 10° S 19:34:53 47° ESE 19:40:17 10° NE
Cosmos 1634 Rocket 4.2 19:34:24 32° SE 19:36:41 44° E 19:42:31 10° NNE
ARIANE 5 R/B 3.3 19:37:43 34° ENE 19:37:43 34° ENE 19:41:38 10° N
SWAS 4.4 19:34:01 10° NNW 19:38:20 68° ENE 19:39:04 55° ESE
ATLAS 3B R/B 3.5 19:33:21 10° NW 19:39:39 39° NNE 19:42:49 26° E
Cosmos 2263 Rocket 3.7 19:34:44 10° WSW 19:39:54 38° NW 19:45:07 10° NNE
Cosmos 1269 Rocket 4.4 19:35:16 10° NNW 19:40:24 46° ENE 19:41:30 40° E
Cosmos 2285 Rocket 4.1 19:35:09 10° S 19:41:12 52° ESE 19:47:20 10° NNE
USA 238 DEB 3.9 19:34:24 10° NW 19:41:37 82° SW 19:45:38 30° SSE
USA 238 3.9 19:34:30 10° NW 19:41:44 82° SW 19:45:42 31° SSE
ISS -2.7 19:39:01 10° SW 19:41:13 35° SSW 19:41:13 35° SSW
MetOp-B 4.4 19:41:11 41° ESE 19:42:21 47° ENE 19:47:29 10° N
Abrixas rocket 3.1 19:40:35 10° W 19:42:32 39° W 19:42:32 39° W
Cosmos 1844 Rocket 2.5 19:41:16 10° SSW 19:46:47 70° ESE 19:52:22 10° NNE
Okean 2 Rocket 4.2 19:43:25 10° SSW 19:47:45 45° WNW 19:52:05 10° N
Spot 2 Rocket 4.1 19:48:07 38° ENE 19:48:24 38° ENE 19:53:03 10° N
Cosmos 1627 Rocket 4.5 19:44:30 10° N 19:50:54 71° ENE 19:53:34 37° SSE
Okean 1 Rocket 2.9 19:51:21 61° SSE 19:51:59 72° E 19:56:29 10° NNE
Lacrosse 5 rocket 3.1 19:49:04 10° WNW 19:52:57 30° N 19:55:13 20° NE
Ariane Rocket 4.3 19:50:31 10° SSW 19:55:12 38° W 19:59:58 10° NNW
Cosmos 1092 Rocket 3.9 19:50:53 10° N 19:57:04 87° W 20:00:15 31° S
Meteor 1-15 Rocket 4.2 19:53:31 10° SSW 19:59:08 83° WNW 20:04:54 10° N
Resurs 1-3 4.0 19:57:58 39° SSW 19:59:23 61° WSW 20:03:45 10° NNW
Cosmos 2195 Rocket 4.4 19:54:04 10° N 20:00:24 89° E 20:03:07 36° S
Cosmos 494 Rocket 4.1 19:58:56 10° NNW 20:04:12 73° WSW 20:05:36 48° S
Cosmos 2026 Rocket 3.9 19:58:12 10° N 20:04:36 83° E 20:06:55 43° SSE
CZ-2C R/B 3.5 20:00:45 10° NNE 20:05:13 86° ESE 20:05:30 78° S
Cosmos 2298 Rocket 4.5 20:00:15 10° SW 20:05:32 63° WNW 20:10:52 10° NNE
SPOT 3 Rocket 3.8 20:03:38 36° S 20:05:42 65° WSW 20:10:51 10° NNW
Cosmos 1833 Rocket 3.3 20:01:58 10° NNW 20:07:19 40° NE 20:07:46 39° ENE
NOSS 3-2 (A) 4.4 20:02:29 10° NW 20:09:50 59° WSW 20:13:57 31° S
Cosmos 1428 Rocket 4.4 20:10:38 10° N 20:16:57 86° W 20:18:51 48° S
Terra 3.4 20:19:13 24° NE 20:19:13 24° NE 20:21:57 10° N
Cosmos 1626 3.3 20:15:20 10° NNW 20:17:51 41° NNW 20:17:51 41° NNW
Cosmos 2279 Rocket 4.0 20:20:51 60° E 20:20:55 60° E 20:27:05 10° NNE
Cosmos 1892 Rocket 4.1 20:16:50 10° N 20:20:06 49° N 20:20:06 49° N
Cosmos 2142 Rocket 4.4 20:21:19 63° SE 20:22:06 70° E 20:28:18 10° NNE
USA 234 3.1 20:19:23 12° ENE 20:25:38 82° SE 20:32:12 10° SW
Meteor 2-5 Rocket 4.2 20:23:24 10° NNW 20:28:54 57° W 20:30:35 41° SSW
OBJECT-B 3.6 20:34:34 16° W 20:34:34 16° W 20:36:36 10° NW
SPOT 5 3.7 20:40:10 46° NNE 20:40:10 46° NNE 20:44:15 10° N
NOSS 3-2 (C) 4.4 20:36:38 10° NW 20:43:58 56° WSW 20:46:11 44° S
Meteor 1-22 Rocket 4.5 20:43:04 56° SW 20:44:15 72° WNW 20:50:19 10° N
Cosmos 1125 Rocket 4.4 20:41:24 10° SW 20:46:31 47° WNW 20:51:40 10° NNE
Cosmos 2082 Rocket 2.9 20:41:49 10° NNW 20:46:33 44° NNE 20:46:33 44° NNE
COSMOS 2406 3.3 20:49:12 10° NNW 20:54:20 71° WNW 20:54:20 71° WNW
Meteor 1-24 Rocket 4.5 20:50:30 10° NNW 20:55:41 45° W 20:56:23 43° WSW
ERS-1 Rocket 3.7 20:57:24 49° N 20:57:24 49° N 21:01:06 10° NNW
Resurs 01 Rocket 3.4 20:56:51 26° W 20:56:59 26° W 21:00:45 10° NW
Cosmos 2098 Rocket 4.0 20:56:38 10° N 21:03:50 87° NW 21:03:50 87° NW
Lacrosse 4 Rocket 3.6 21:00:34 10° NNW 21:02:11 22° NNW 21:02:11 22° NNW
Cosmos 2266 Rocket 4.1 21:00:29 10° N 21:05:35 63° NNE 21:05:35 63° NNE
ATLAS 2AS CENTAUR R/B 2.9 21:11:59 76° SSW 21:12:43 85° SE 21:20:38 10° NE
Cosmos 1655 Rocket 4.1 21:06:39 10° NNW 21:12:30 72° WNW 21:12:30 72° WNW
SPOT 1/Viking Rocket 4.5 21:14:25 45° WNW 21:14:25 45° WNW 21:18:33 10° NNW
Cosmos 2278 Rocket 4.0 21:22:33 22° NNE 21:22:33 22° NNE 21:24:25 10° NNE
CENTAUR R/B 4.0 21:16:53 10° NW 21:24:17 39° WSW 21:25:44 36° SW
ATLAS 3B R/B 2.9 21:24:03 10° NW 21:30:03 66° W 21:30:03 66° W
Lacrosse 5 rocket 3.8 21:28:51 10° NW 21:30:51 23° NW 21:30:51 23° NW
Cosmos 1833 Rocket 4.1 21:46:01 10° NW 21:49:28 32° WNW 21:49:28 32° WNW
Terra 3.9 21:58:06 24° NW 21:58:06 24° NW 22:00:08 10° NNW
USA 234 3.8 22:02:09 10° ENE 22:08:28 53° NNW 22:14:46 10° W
Cosmos 2082 Rocket 4.2 22:26:12 10° NW 22:28:23 21° WNW 22:28:23 21° WNW
CZ-4C R/B 4.3 23:02:00 23° NE 23:02:00 23° NE 23:04:19 10° NE
Cosmos 2278 Rocket 4.2 23:04:22 24° NNW 23:04:22 24° NNW 23:08:05 10° NNE
ATLAS 2AS CENTAUR R/B 4.1 22:59:08 18° W 23:04:33 40° NNW 23:11:46 10° NE
USA 234 4.1 23:44:42 10° ENE 23:54:28 24° NW 23:57:01 10° WNW
